TimePST,TemperatureF,Dew PointF,Humidity,Sea Level PressureIn,VisibilityMPH,Wind Direction,Wind SpeedMPH,Gust SpeedMPH,PrecipitationIn,Events,Conditions,WindDirDegrees,DateUTC
12:56 AM,53.1,23.0,31,29.68,10.0,SSW,9.2,-,N/A,,Clear,200,2013-02-08 08:56:00
1:56 AM,53.1,30.9,43,29.68,10.0,SW,21.9,27.6,N/A,,Partly Cloudy,230,2013-02-08 09:56:00
2:56 AM,51.1,28.9,43,29.67,10.0,SSW,19.6,26.5,N/A,,Partly Cloudy,200,2013-02-08 10:56:00
3:56 AM,48.9,28.0,44,29.67,10.0,SW,18.4,24.2,N/A,,Partly Cloudy,220,2013-02-08 11:56:00
4:56 AM,50.0,25.0,38,29.65,10.0,South,15.0,19.6,N/A,,Partly Cloudy,190,2013-02-08 12:56:00
5:56 AM,46.9,26.1,44,29.66,10.0,SW,18.4,24.2,N/A,,Partly Cloudy,230,2013-02-08 13:56:00
6:56 AM,46.9,25.0,42,29.66,10.0,SSW,23.0,35.7,N/A,,Partly Cloudy,210,2013-02-08 14:56:00
7:56 AM,46.9,26.1,44,29.68,10.0,SSW,18.4,28.8,N/A,,Scattered Clouds,210,2013-02-08 15:56:00
8:56 AM,46.9,23.0,39,29.70,10.0,SW,25.3,34.5,N/A,,Scattered Clouds,220,2013-02-08 16:56:00
9:56 AM,48.0,21.9,36,29.71,10.0,SSW,25.3,32.2,N/A,,Mostly Cloudy,210,2013-02-08 17:56:00
10:56 AM,51.1,21.0,31,29.70,10.0,SW,15.0,28.8,N/A,,Mostly Cloudy,220,2013-02-08 18:56:00
11:56 AM,52.0,21.9,31,29.68,10.0,West,13.8,19.6,N/A,,Mostly Cloudy,260,2013-02-08 19:56:00
12:56 PM,54.0,19.9,26,29.66,10.0,WSW,17.3,25.3,N/A,,Partly Cloudy,240,2013-02-08 20:56:00
1:56 PM,54.0,19.0,25,29.66,10.0,SSW,13.8,25.3,N/A,,Mostly Cloudy,210,2013-02-08 21:56:00
2:09 PM,55.4,17.6,23,29.68,10.0,SW,12.7,27.6,N/A,,Mostly Cloudy,230,2013-02-08 22:09:00
2:56 PM,55.0,17.1,23,29.65,10.0,SSW,18.4,31.1,N/A,,Mostly Cloudy,210,2013-02-08 22:56:00
3:56 PM,52.0,19.9,28,29.67,10.0,SW,17.3,25.3,N/A,,Mostly Cloudy,230,2013-02-08 23:56:00
4:56 PM,50.0,19.9,31,29.67,10.0,SW,15.0,23.0,N/A,,Mostly Cloudy,220,2013-02-09 00:56:00
5:56 PM,46.9,26.1,44,29.70,10.0,Calm,Calm,-,N/A,,Mostly Cloudy,0,2013-02-09 01:56:00
6:56 PM,46.9,27.0,46,29.71,10.0,Calm,Calm,-,N/A,,Mostly Cloudy,0,2013-02-09 02:56:00
7:56 PM,46.9,24.1,41,29.70,10.0,Calm,Calm,-,N/A,,Mostly Cloudy,0,2013-02-09 03:56:00
8:56 PM,46.0,24.1,42,29.70,10.0,Calm,Calm,-,N/A,,Scattered Clouds,0,2013-02-09 04:56:00
9:56 PM,44.1,24.1,45,29.70,10.0,SSW,8.1,-,N/A,,Scattered Clouds,200,2013-02-09 05:56:00
10:56 PM,43.0,24.1,47,29.69,10.0,SSW,9.2,-,N/A,,Scattered Clouds,200,2013-02-09 06:56:00
11:56 PM,43.0,25.0,49,29.69,10.0,SSW,11.5,-,N/A,,Scattered Clouds,200,2013-02-09 07:56:00